CW9861 Weather Reports


Display with metric or nautical units.
time (UTC)temp
F
wind
direction
speed
MPH
gust
MPH
rain 1hr
in
rain 24hr
in
rain mn
in
humidity
%
barometer
mb
20260906152456 72 76 1.0 4.0 0.00 0.00 0.00 76 1019.9
20260906151956 72 54 1.0 4.0 0.00 0.00 0.00 74 1019.8
20260906151457 72 103 1.0 4.0 0.00 0.00 0.00 77 1019.8
20260906150956 72 37 1.0 3.0 0.00 0.00 0.00 77 1019.8
20260906150458 71 82 1.0 5.0 0.00 0.00 0.00 78 1019.8
20260906145957 71 74 2.0 4.0 0.00 0.00 0.00 76 1019.8
20260906145457 71 53 1.0 3.0 0.00 0.00 0.00 80 1019.7
20260906144956 70 43 2.0 6.0 0.00 0.00 0.00 80 1019.8
20260906144456 70 72 0.0 6.0 0.00 0.00 0.00 81 1019.7
20260906143957 69 71 2.0 5.0 0.00 0.00 0.00 80 1019.7
20260906143456 69 59 3.0 5.0 0.00 0.00 0.00 81 1019.6
20260906142956 69 68 2.0 5.0 0.00 0.00 0.00 81 1019.5
20260906142456 69 132 1.0 3.0 0.00 0.00 0.00 82 1019.6
20260906141956 69 150 0.0 3.0 0.00 0.00 0.00 84 1019.4
20260906141456 68 105 1.0 3.0 0.00 0.00 0.00 84 1019.2
20260906140956 68 68 0.0 2.0 0.00 0.00 0.00 84 1019.2
20260906132956 63 73 0.0 3.0 0.00 0.00 0.00 89 1019.4
20260906132457 62 101 0.0 3.0 0.00 0.00 0.00 90 1019.4
20260906131958 61 91 0.0 2.0 0.00 0.00 0.00 91 1019.3
20260906131456 60 96 0.0 3.0 0.00 0.00 0.00 91 1019.4
20260906130957 60 43 1.0 3.0 0.00 0.00 0.00 91 1019.4
20260906130457 59 95 0.0 3.0 0.00 0.00 0.00 92 1019.4
20260906125958 59 61 1.0 3.0 0.00 0.00 0.00 92 1019.2
20260906125457 58 57 1.0 2.0 0.00 0.00 0.00 92 1019.2
20260906124956 56 90 0.0 2.0 0.00 0.00 0.00 92 1019.2
20260906124457 56 90 1.0 2.0 0.00 0.00 0.00 91 1019.2
20260906123956 55 161 0.0 1.0 0.00 0.00 0.00 91 1019.2
20260906123457 55 249 0.0 2.0 0.00 0.00 0.00 91 1019.3
20260906122957 54 249 0.0 2.0 0.00 0.00 0.00 91 1019.2
20260906122457 54 59 0.0 0.0 0.00 0.00 0.00 91 1019.0
20260906121957 54 246 0.0 0.0 0.00 0.00 0.00 91 1019.0
20260906121457 54 246 0.0 1.0 0.00 0.00 0.00 91 1018.8
20260906120957 54 246 0.0 1.0 0.00 0.00 0.00 90 1018.7
20260906120457 54 251 0.0 1.0 0.00 0.00 0.00 90 1018.6
20260906115957 54 251 0.0 1.0 0.00 0.00 0.00 90 1018.6
20260906115456 53 251 0.0 0.0 0.00 0.00 0.00 90 1018.6
20260906114956 53 251 0.0 0.0 0.00 0.00 0.00 90 1018.6
20260906114455 54 251 0.0 1.0 0.00 0.00 0.00 90 1018.5
20260906113955 54 251 0.0 1.0 0.00 0.00 0.00 90 1018.5
20260906113455 54 179 0.0 1.0 0.00 0.00 0.00 90 1018.6
20260906112956 54 234 0.0 1.0 0.00 0.00 0.00 90 1018.6
20260906112457 54 32 0.0 0.0 0.00 0.00 0.00 90 1018.5
20260906111956 54 32 0.0 0.0 0.00 0.00 0.00 90 1018.3
20260906111456 54 32 0.0 0.0 0.00 0.00 0.00 90 1018.4
20260906110956 54 32 0.0 0.0 0.00 0.00 0.00 90 1018.3
20260906110456 54 32 0.0 0.0 0.00 0.00 0.00 90 1018.3
20260906105957 54 32 0.0 0.0 0.00 0.00 0.00 90 1018.3
20260906102456 55 37 0.0 0.0 0.00 0.00 0.00 90 1018.3
20260906101956 55 37 0.0 0.0 0.00 0.00 0.00 90 1018.3
20260906101456 55 37 0.0 0.0 0.00 0.00 0.00 90 1018.2
20260906100956 56 34 0.0 0.0 0.00 0.00 0.00 90 1018.1
20260906100455 56 34 0.0 0.0 0.00 0.00 0.00 90 1018.2
20260906095956 56 34 0.0 0.0 0.00 0.00 0.00 90 1018.3
20260906095456 56 34 0.0 0.0 0.00 0.00 0.00 90 1018.3
20260906094958 56 34 0.0 0.0 0.00 0.00 0.00 90 1018.3
20260906094456 56 34 0.0 0.0 0.00 0.00 0.00 90 1018.1
20260906093957 56 34 0.0 0.0 0.00 0.00 0.00 90 1018.1
20260906093457 57 34 0.0 0.0 0.00 0.00 0.00 90 1018.1
20260906092957 57 34 0.0 0.0 0.00 0.00 0.00 90 1018.0
20260906092457 57 34 0.0 0.0 0.00 0.00 0.00 90 1017.9
20260906091957 57 34 0.0 0.0 0.00 0.00 0.00 90 1017.9
20260906091458 57 34 0.0 0.0 0.00 0.00 0.00 90 1017.7
20260906090957 57 34 0.0 0.0 0.00 0.00 0.00 90 1017.8
20260906090457 57 34 0.0 1.0 0.00 0.00 0.00 90 1017.8
20260906085958 57 34 0.0 1.0 0.00 0.00 0.00 90 1017.7
20260906085456 57 34 0.0 1.0 0.00 0.00 0.00 90 1017.7
20260906084957 57 34 0.0 0.0 0.00 0.00 0.00 90 1017.7
20260906084456 57 34 0.0 1.0 0.00 0.00 0.00 90 1017.7
20260906083957 57 34 0.0 1.0 0.00 0.00 0.00 90 1017.8
20260906083456 57 60 0.0 0.0 0.00 0.00 0.00 90 1017.6
20260906082957 57 72 0.0 0.0 0.00 0.00 0.00 90 1017.5
20260906082457 57 72 0.0 0.0 0.00 0.00 0.00 90 1017.4
20260906081956 57 72 0.0 0.0 0.00 0.00 0.00 90 1017.4
20260906081458 58 72 0.0 0.0 0.00 0.00 0.00 90 1017.4
20260906080956 58 72 0.0 0.0 0.00 0.00 0.00 90 1017.4
20260906080458 58 72 0.0 0.0 0.00 0.00 0.00 90 1017.4
20260906075959 58 68 0.0 0.0 0.00 0.00 0.00 90 1017.4
20260906075457 58 84 0.0 2.0 0.00 0.00 0.00 90 1017.5
20260906074957 58 84 0.0 2.0 0.00 0.00 0.00 90 1017.6
20260906074457 58 34 0.0 1.0 0.00 0.00 0.00 90 1017.6
20260906073957 58 75 0.0 1.0 0.00 0.00 0.00 90 1017.4
20260906073457 57 75 0.0 0.0 0.00 0.00 0.00 89 1017.4
20260906072957 57 75 0.0 1.0 0.00 0.00 0.00 89 1017.4
20260906072457 57 75 0.0 1.0 0.00 0.00 0.00 89 1017.3
20260906071957 57 75 0.0 0.0 0.00 0.00 0.00 88 1017.4
20260906071457 57 75 0.0 0.0 0.00 0.00 0.00 88 1017.4
20260906070956 57 75 0.0 0.0 0.00 0.00 0.00 88 1017.5
20260906070457 58 75 0.0 0.0 0.00 0.00 0.00 88 1017.6
20260906065959 58 75 0.0 0.0 0.00 0.00 0.00 88 1017.6
20260906065456 58 75 0.0 0.0 0.00 0.00 0.00 88 1017.6
20260906064956 58 75 0.0 0.0 0.00 0.00 0.00 88 1017.7
20260906064456 58 75 0.0 0.0 0.00 0.00 0.00 88 1017.7
20260906063958 58 75 0.0 0.0 0.00 0.00 0.00 87 1017.7
20260906063456 58 75 0.0 0.0 0.00 0.00 0.00 87 1017.6
20260906062957 59 75 0.0 0.0 0.00 0.00 0.00 87 1017.6
20260906062456 59 75 0.0 0.0 0.00 0.00 0.00 87 1017.5
20260906061957 59 75 0.0 0.0 0.00 0.00 0.00 87 1017.4
20260906054456 60 75 0.0 0.0 0.00 0.00 0.00 87 1017.5
20260906053956 60 75 0.0 0.0 0.00 0.00 0.00 88 1017.4
20260906053456 60 75 0.0 0.0 0.00 0.00 0.00 87 1017.4
20260906052957 61 75 0.0 1.0 0.00 0.00 0.00 87 1017.3
20260906052456 61 75 0.0 1.0 0.00 0.00 0.00 87 1017.1
20260906051955 61 75 0.0 0.0 0.00 0.00 0.00 87 1017.2
20260906051456 61 75 0.0 0.0 0.00 0.00 0.00 87 1017.3
20260906050956 61 75 0.0 0.0 0.00 0.00 0.00 87 1017.3
20260906050456 61 75 0.0 0.0 0.00 0.00 0.00 87 1017.2
20260906045957 62 75 0.0 0.0 0.00 0.00 0.00 87 1017.1
20260906045458 62 75 0.0 0.0 0.00 0.00 0.00 87 1017.0
20260906044957 62 75 0.0 1.0 0.00 0.00 0.00 87 1016.9
20260906044457 62 53 0.0 0.0 0.00 0.00 0.00 87 1016.9
20260906040958 63 276 0.0 1.0 0.00 0.00 0.00 86 1016.6
20260906040457 63 70 0.0 2.0 0.00 0.00 0.00 86 1016.7
20260906040002 63 70 0.0 2.0 0.00 0.00 0.00 86 1016.7
20260906035457 63 78 0.0 1.0 0.00 0.00 0.00 85 1016.7
20260906034958 63 78 0.0 0.0 0.00 0.00 0.00 85 1016.7
20260906034459 63 78 0.0 0.0 0.00 0.00 0.00 85 1016.7
20260906033958 64 78 0.0 0.0 0.00 0.00 0.00 85 1016.5
20260906033457 64 78 0.0 1.0 0.00 0.00 0.00 85 1016.4
20260906032957 64 78 0.0 1.0 0.00 0.00 0.00 85 1016.4
20260906032501 64 78 0.0 1.0 0.00 0.00 0.00 85 1016.6
20260906031958 64 78 0.0 1.0 0.00 0.00 0.00 85 1016.4
20260906031458 64 78 0.0 1.0 0.00 0.00 0.00 84 1016.4
20260906030957 64 78 0.0 1.0 0.00 0.00 0.00 84 1016.4
20260906030458 64 77 0.0 0.0 0.00 0.00 0.00 84 1016.2
20260906025957 65 91 0.0 1.0 0.00 0.00 0.00 84 1016.2
20260906025457 65 105 0.0 1.0 0.00 0.00 0.00 84 1016.2
20260906024958 65 105 0.0 1.0 0.00 0.00 0.00 84 1016.1
20260906024457 65 105 0.0 1.0 0.00 0.00 0.00 84 1016.3
20260906023957 65 50 0.0 1.0 0.00 0.00 0.00 84 1016.1
20260906023457 65 50 0.0 1.0 0.00 0.00 0.00 84 1016.2
20260906022958 65 307 0.0 1.0 0.00 0.00 0.00 84 1016.2
20260906015458 66 83 0.0 0.0 0.00 0.00 0.00 83 1015.9
20260906014957 66 83 0.0 0.0 0.00 0.00 0.00 83 1015.7
20260906014457 67 83 0.0 0.0 0.00 0.00 0.00 83 1015.7
20260906013958 67 83 0.0 0.0 0.00 0.00 0.00 82 1015.7
20260906013457 67 83 0.0 0.0 0.00 0.00 0.00 82 1015.7
20260906012957 67 83 0.0 0.0 0.00 0.00 0.00 82 1015.7
20260906012458 68 83 0.0 0.0 0.00 0.00 0.00 82 1015.6
20260906011957 68 83 0.0 0.0 0.00 0.00 0.00 82 1015.5
20260906011458 69 83 0.0 0.0 0.00 0.00 0.00 82 1015.3
20260906010957 69 83 0.0 0.0 0.00 0.00 0.00 80 1015.3
20260906010457 69 83 0.0 0.0 0.00 0.00 0.00 80 1015.3
20260906005957 69 83 0.0 0.0 0.00 0.00 0.00 80 1015.2
20260906005457 70 83 0.0 0.0 0.00 0.00 0.00 81 1015.1
20260906004957 70 83 0.0 0.0 0.00 0.00 0.00 80 1015.0
20260906004456 71 83 0.0 0.0 0.00 0.00 0.00 79 1014.9
20260906003956 71 83 0.0 0.0 0.00 0.00 0.00 79 1014.9
20260906003456 71 83 0.0 0.0 0.00 0.00 0.00 79 1015.0
20260906002956 72 83 0.0 0.0 0.00 0.00 0.00 79 1015.0
20260906002457 72 83 0.0 0.0 0.00 0.00 0.00 79 1015.0
20260906001956 72 83 0.0 0.0 0.00 0.00 0.00 79 1015.0
20260906001457 72 83 0.0 0.0 0.00 0.00 0.00 79 1015.0
20260906000956 73 83 0.0 0.0 0.00 0.00 0.00 78 1015.0
20260906000456 73 83 0.0 0.0 0.00 0.00 0.00 78 1015.2
20260905235957 73 83 0.0 1.0 0.00 0.00 0.00 78 1015.1
20260905235457 73 83 0.0 1.0 0.00 0.00 0.00 77 1015.0
20260905234957 74 83 0.0 2.0 0.00 0.00 0.00 77 1014.9
20260905234457 74 86 1.0 2.0 0.00 0.00 0.00 76 1014.9
20260905233957 74 91 0.0 1.0 0.00 0.00 0.00 77 1015.0
20260905233457 74 68 0.0 1.0 0.00 0.00 0.00 77 1015.0
20260905232957 74 68 0.0 1.0 0.00 0.00 0.00 77 1015.0
20260905232457 74 77 0.0 1.0 0.00 0.00 0.00 78 1015.0
20260905231957 74 77 0.0 1.0 0.00 0.00 0.00 77 1015.1
20260905231457 74 93 0.0 2.0 0.00 0.00 0.00 77 1015.0
20260905230958 74 86 0.0 1.0 0.00 0.00 0.00 77 1015.0
20260905230457 75 86 0.0 3.0 0.00 0.00 0.00 77 1014.9
20260905225957 75 54 0.0 2.0 0.00 0.00 0.00 76 1014.8
20260905225456 75 78 1.0 2.0 0.00 0.00 0.00 75 1014.7
20260905224957 76 70 0.0 2.0 0.00 0.00 0.00 75 1014.7
20260905224456 76 74 0.0 3.0 0.00 0.00 0.00 74 1014.7
20260905223956 76 48 0.0 4.0 0.00 0.00 0.00 73 1014.6
20260905223456 76 23 2.0 4.0 0.00 0.00 0.00 72 1014.6
20260905222956 77 78 0.0 2.0 0.00 0.00 0.00 74 1014.5
20260905222456 77 66 1.0 4.0 0.00 0.00 0.00 73 1014.5
20260905221956 78 59 0.0 4.0 0.00 0.00 0.00 73 1014.6
20260905221457 78 357 1.0 4.0 0.00 0.00 0.00 72 1014.5
20260905220956 78 89 1.0 4.0 0.00 0.00 0.00 73 1014.4
20260905220456 78 120 1.0 4.0 0.00 0.00 0.00 72 1014.3
20260905215957 78 40 1.0 3.0 0.00 0.00 0.00 75 1014.4
20260905215456 77 72 1.0 2.0 0.00 0.00 0.00 77 1014.3
20260905214956 77 79 0.0 3.0 0.00 0.00 0.00 76 1014.2
20260905214457 76 89 1.0 5.0 0.00 0.00 0.00 77 1014.2
20260905213956 76 66 1.0 5.0 0.00 0.00 0.00 75 1014.1
20260905213456 77 86 1.0 3.0 0.00 0.00 0.00 76 1014.2
20260905212956 77 78 1.0 3.0 0.00 0.00 0.00 75 1014.2
20260905212456 79 59 1.0 3.0 0.00 0.00 0.00 71 1014.2
20260905211955 80 53 1.0 3.0 0.00 0.00 0.00 72 1014.2
20260905211456 80 64 1.0 6.0 0.00 0.00 0.00 69 1014.1
20260905210956 80 58 2.0 6.0 0.00 0.00 0.00 68 1014.1
20260905210456 80 49 1.0 4.0 0.00 0.00 0.00 70 1014.1
20260905205959 80 137 0.0 2.0 0.00 0.00 0.00 74 1014.1
20260905205457 79 70 1.0 3.0 0.00 0.00 0.00 72 1014.1
20260905204958 80 100 1.0 3.0 0.00 0.00 0.00 75 1014.0
20260905204457 79 96 1.0 7.0 0.00 0.00 0.00 74 1014.1
20260905200957 78 58 1.0 3.0 0.00 0.00 0.00 77 1014.5
20260905200457 79 84 1.0 3.0 0.00 0.00 0.00 73 1014.4
20260905195958 79 63 1.0 3.0 0.00 0.00 0.00 75 1014.4
20260905195458 78 70 2.0 5.0 0.00 0.00 0.00 77 1014.4
20260905194957 77 107 2.0 5.0 0.00 0.00 0.00 77 1014.4
20260905194457 76 58 0.0 3.0 0.00 0.00 0.00 78 1014.4
20260905193957 76 102 1.0 3.0 0.00 0.00 0.00 80 1014.5
20260905193457 76 110 0.0 2.0 0.00 0.00 0.00 80 1014.5
20260905192957 76 66 0.0 3.0 0.00 0.00 0.00 81 1014.6
20260905192456 76 84 1.0 3.0 0.00 0.00 0.00 80 1014.5
20260905191957 76 80 1.0 4.0 0.00 0.00 0.00 82 1014.6
20260905191458 76 82 2.0 4.0 0.00 0.00 0.00 79 1014.7
20260905183458 74 23 0.0 1.0 0.00 0.00 0.00 84 1015.1
20260905182957 74 23 0.0 1.0 0.00 0.00 0.00 84 1015.1
20260905182457 73 68 0.0 0.0 0.00 0.00 0.00 84 1014.9
20260905181957 73 68 0.0 0.0 0.00 0.00 0.00 85 1015.0
20260905181457 73 68 0.0 0.0 0.00 0.00 0.00 85 1015.0
20260905180957 73 68 0.0 0.0 0.00 0.00 0.00 86 1015.0
20260905180458 73 68 0.0 0.0 0.00 0.00 0.00 84 1014.9
20260905175956 73 68 0.0 0.0 0.00 0.00 0.00 85 1015.0
20260905175457 73 68 0.0 1.0 0.00 0.00 0.00 86 1015.0
20260905174956 72 68 0.0 1.0 0.00 0.00 0.00 85 1015.0
20260905174456 72 78 0.0 1.0 0.00 0.00 0.00 85 1015.0
20260905173956 72 59 0.0 1.0 0.00 0.00 0.00 85 1014.9
20260905165958 71 40 0.0 3.0 0.00 0.00 0.00 86 1014.8
20260905165457 71 65 1.0 3.0 0.00 0.01 0.00 85 1014.9
20260905164957 71 69 0.0 2.0 0.00 0.01 0.00 86 1014.9
20260905164458 72 78 0.0 3.0 0.00 0.01 0.00 86 1014.9
20260905163957 72 59 1.0 3.0 0.00 0.01 0.00 85 1015.0
20260905163457 72 85 1.0 3.0 0.00 0.01 0.00 86 1015.0
20260905162957 72 22 0.0 2.0 0.00 0.01 0.00 85 1014.9
20260905162457 72 59 0.0 3.0 0.00 0.01 0.00 86 1014.8
20260905161957 72 57 0.0 3.0 0.00 0.01 0.00 85 1014.8
20260905161457 72 57 1.0 3.0 0.00 0.01 0.00 85 1014.8
20260905160956 72 26 1.0 3.0 0.00 0.01 0.00 85 1014.8
20260905160456 72 142 1.0 3.0 0.00 0.01 0.00 85 1014.7
20260905155957 73 32 1.0 2.0 0.00 0.03 0.00 85 1014.6
20260905155457 73 65 0.0 2.0 0.00 0.03 0.00 85 1014.7
20260905154957 72 97 1.0 2.0 0.00 0.03 0.00 86 1014.7
20260905154458 72 39 1.0 3.0 0.00 0.03 0.00 85 1014.7
20260905153957 71 58 0.0 3.0 0.00 0.03 0.00 87 1014.8
20260905153457 71 77 0.0 5.0 0.00 0.03 0.00 87 1014.8
20260905152956 71 3 1.0 6.0 0.00 0.03 0.00 87 1014.8